EW9660 Weather Reports


time (UTC)temp
C
wind
direction
speed
KPH
gust
KPH
rain 1hr
cm
rain 24hr
cm
rain mn
cm
humidity
%
barometer
mb
20260505001529 18 301 0.0 3.2 0.00 0.00 0.00 45 1013.9
20260505000026 19 161 0.0 3.2 0.00 0.00 0.00 43 1013.8
20260504234513 20 161 0.0 1.6 0.00 0.00 0.00 42 1013.7
20260504233045 21 295 0.0 1.6 0.00 0.00 0.00 39 1013.5
20260504231514 21 262 0.0 1.6 0.00 0.00 0.00 39 1013.4
20260504230018 22 101 0.0 3.2 0.00 0.00 0.00 37 1013.3
20260504224551 22 187 0.0 3.2 0.00 0.00 0.00 37 1013.4
20260504223036 23 187 0.0 4.8 0.00 0.00 0.00 35 1013.4
20260504221516 23 240 0.0 4.8 0.00 0.00 0.00 32 1013.3
20260504220051 24 247 0.0 6.4 0.00 0.00 0.00 30 1013.4
20260504214544 24 164 0.0 6.4 0.00 0.00 0.00 34 1013.4
20260504213017 25 140 3.2 6.4 0.00 0.00 0.00 30 1013.4
20260504211556 25 41 3.2 9.7 0.00 0.00 0.00 26 1013.4
20260504210030 25 213 4.8 11.3 0.00 0.00 0.00 27 1013.6
20260504204515 25 136 3.2 9.7 0.00 0.00 0.00 27 1013.6
20260504203055 25 181 3.2 12.9 0.00 0.00 0.00 30 1013.8
20260504201525 25 179 3.2 9.7 0.00 0.00 0.00 29 1013.9
20260504200051 25 180 1.6 16.1 0.00 0.00 0.00 28 1014.2
20260504194521 25 146 3.2 11.3 0.00 0.00 0.00 29 1014.3
20260504193100 25 348 6.4 14.5 0.00 0.00 0.00 32 1014.4
20260504191535 25 98 3.2 11.3 0.00 0.00 0.00 29 1014.6
20260504190003 26 207 6.4 16.1 0.00 0.00 0.00 29 1014.8
20260504184615 25 296 3.2 9.7 0.00 0.00 0.00 28 1014.9
20260504183039 25 148 1.6 8.0 0.00 0.00 0.00 32 1015.0
20260504181527 25 330 3.2 9.7 0.00 0.00 0.00 31 1015.1
20260504180019 24 157 3.2 9.7 0.00 0.00 0.00 25 1015.3
20260504174506 24 360 4.8 14.5 0.00 0.00 0.00 27 1015.3
20260504173014 24 113 1.6 11.3 0.00 0.00 0.00 27 1015.6
20260504171538 23 360 1.6 6.4 0.00 0.00 0.00 28 1015.9
20260504160103 21 165 1.6 8.0 0.00 0.00 0.00 32 1017.1
20260504081507 5 19 0.0 0.0 0.00 0.00 0.00 85 1016.4
20260504070109 6 19 0.0 0.0 0.00 0.00 0.00 82 1016.4
20260504044535 8 196 0.0 0.0 0.00 0.00 0.00 79 1016.4
20260504043032 8 196 0.0 0.0 0.00 0.00 0.00 78 1016.4
20260504041516 8 196 0.0 0.0 0.00 0.00 0.00 78 1016.5
20260504040059 8 196 0.0 0.0 0.00 0.00 0.00 76 1016.9
20260504034551 9 196 0.0 0.0 0.00 0.00 0.00 75 1016.9
20260504033004 9 196 0.0 0.0 0.00 0.00 0.00 75 1016.9
20260504031520 10 196 0.0 0.0 0.00 0.00 0.00 73 1016.9
20260504030105 10 196 0.0 0.0 0.00 0.00 0.00 72 1016.9
20260504024559 10 196 0.0 0.0 0.00 0.00 0.00 71 1016.9
20260504023031 10 196 0.0 0.0 0.00 0.00 0.00 70 1016.6
20260504021517 10 196 0.0 1.6 0.00 0.00 0.00 68 1016.4
20260504020013 11 196 0.0 1.6 0.00 0.00 0.00 66 1016.3
20260504014557 11 196 0.0 1.6 0.00 0.00 0.00 65 1016.0
20260504013054 12 196 0.0 0.0 0.00 0.00 0.00 61 1015.9
20260504011525 13 196 0.0 0.0 0.00 0.00 0.00 57 1015.8
20260504010003 13 196 0.0 1.6 0.00 0.00 0.00 54 1015.6
20260504004531 14 196 0.0 0.0 0.00 0.00 0.00 51 1015.6
20260504003035 15 196 0.0 3.2 0.00 0.00 0.00 48 1015.4